Find Starlink 34315

NORAD ID: 64266 Int'l Des: 2025-120 Owner: SPXS Country: US Constellation: starlink operational
LEOCIRCULAR

現在のビュー

3D地球を読み込み中...

About Starlink 34315

Starlink 34315 (NORAD 64266) is a starlink constellation satellite (v2 mini) launched Jun 4, 2025 by SPXS of US. It operates in LEO, CIRCULAR orbit with a mass of 575.00 kg.

次回通過

Passes for default location (London). Set your location on the main map for personalized predictions.

高度履歴

Loading altitude history...

軌道要素

1 64266U 25120L 26263.56706947 .00011996 00000-0 36555-3 0 9990
2 64266 53.1586 289.3186 0001452 87.0384 273.0785 15.34405219 73728
Epoch: Sep 20, 2026 • Age: 17 hours

現在のステータス

高度 481.8 km
遠地点 / 近地点 N/A
速度 7.62 km/s
衛星直下点 -52.28°S, 84.74°E
打ち上げ日 Jun 4, 2025
運用期間 1.2 years
タイプ internet

技術仕様

分類 Payload
質量 575.00 kg
乾燥質量 530.00 kg
長さ 0.30 m
スパン 29.00 m
形状 ? Box + pan
製造者 SPXS
バスタイプ Starlink V2MO
フェーズステータス In Orbit
所有者/国 SPXS/US

Most Searched